,,,PA_Meas_PMT16A,,PR_Meas_QMR101_102,,RH_Meas_QMH101,,SR_Meas_QMS101,,TA_Meas_QMH101,,GenWind,,GenWind,
date,time,status,PA,status,PR,status,RH,status,SR,status,TA,status,DirAvg,status,SpdAvg,
2008-12-07, 00:00:04,VALID,1003.46,VALID,0,VALID,92.462,VALID,0,VALID,24.9106,VALID,341,VALID,0.426562,
2008-12-07, 00:01:04,VALID,1003.47,VALID,0,VALID,92.5307,VALID,0,VALID,24.9106,VALID,341,VALID,0.397266,
2008-12-07, 00:02:04,VALID,1003.47,VALID,0,VALID,92.5612,VALID,0,VALID,24.8911,VALID,341,VALID,0.43125,
2008-12-07, 00:03:04,VALID,1003.44,VALID,0,VALID,92.6528,VALID,0,VALID,24.8911,VALID,341,VALID,0.396484,
2008-12-07, 00:04:04,VALID,1003.46,VALID,0,VALID,92.729,VALID,0,VALID,24.8716,VALID,341,VALID,0.365234,
2008-12-07, 00:05:04,VALID,1003.46,VALID,0,VALID,92.813,VALID,0,VALID,24.8522,VALID,341,VALID,0.219531,
2008-12-07, 00:06:04,VALID,1003.45,VALID,0,VALID,92.8511,VALID,0,VALID,24.8522,VALID,341,VALID,0.254687,
2008-12-07, 00:07:04,VALID,1003.43,VALID,0,VALID,92.8969,VALID,0,VALID,24.8522,VALID,342,VALID,0.382813,
2008-12-07, 00:08:04,VALID,1003.42,VALID,0,VALID,92.9503,VALID,0,VALID,24.8522,VALID,343,VALID,0.455469,
2008-12-07, 00:09:04,VALID,1003.4,VALID,0,VALID,92.9808,VALID,0,VALID,24.8716,VALID,350,VALID,0.430859,
2008-12-07, 00:10:04,VALID,1003.35,VALID,0,VALID,92.9503,VALID,0,VALID,24.893,VALID,351,VALID,0.464453,
2008-12-07, 00:11:04,VALID,1003.34,VALID,0,VALID,92.9503,VALID,0,VALID,24.9125,VALID,351,VALID,0.369922,
2008-12-07, 00:12:04,VALID,1003.35,VALID,0,VALID,92.935,VALID,0,VALID,24.9106,VALID,351,VALID,0.553516,
2008-12-07, 00:13:04,VALID,1003.32,VALID,0,VALID,92.9274,VALID,0,VALID,24.93,VALID,352,VALID,0.0753906,
2008-12-07, 00:14:04,VALID,1003.33,VALID,0,VALID,92.8053,VALID,0,VALID,24.9709,VALID,352,VALID,0.121484,
2008-12-07, 00:15:04,VALID,1003.28,VALID,0,VALID,92.6833,VALID,0,VALID,24.969,VALID,352,VALID,0.0191406,
2008-12-07, 00:16:04,VALID,1003.24,VALID,0,VALID,92.6146,VALID,0,VALID,24.9495,VALID,352,VALID,0.391406,
2008-12-07, 00:17:04,VALID,1003.23,VALID,0,VALID,92.6299,VALID,0,VALID,24.9106,VALID,352,VALID,0.358203,
2008-12-07, 00:18:04,VALID,1003.23,VALID,0,VALID,92.6833,VALID,0,VALID,24.9106,VALID,352,VALID,0.410156,
2008-12-07, 00:19:04,VALID,1003.26,VALID,0,VALID,92.729,VALID,0,VALID,24.8911,VALID,352,VALID,0.25,
2008-12-07, 00:20:04,VALID,1003.2,VALID,0,VALID,92.8358,VALID,0,VALID,24.8735,VALID,352,VALID,0.028125,
2008-12-07, 00:21:04,VALID,1003.21,VALID,0,VALID,92.9732,VALID,0,VALID,24.8735,VALID,352,VALID,0,
2008-12-07, 00:22:04,VALID,1003.16,VALID,0,VALID,92.935,VALID,0,VALID,24.8132,VALID,352,VALID,0,
2008-12-07, 00:23:04,VALID,1003.12,VALID,0,VALID,93.0418,VALID,0,VALID,24.7937,VALID,352,VALID,0.498047,
2008-12-07, 00:24:04,VALID,1003.11,VALID,0,VALID,93.1029,VALID,0,VALID,24.7937,VALID,352,VALID,0.448438,
2008-12-07, 00:25:04,VALID,1003.1,VALID,0,VALID,93.1791,VALID,0,VALID,24.7743,VALID,352,VALID,0.482422,
2008-12-07, 00:26:04,VALID,1003.09,VALID,0,VALID,93.2783,VALID,0,VALID,24.7724,VALID,353,VALID,0.566797,
2008-12-07, 00:27:04,VALID,1003.09,VALID,0,VALID,93.3012,VALID,0,VALID,24.8132,VALID,353,VALID,0.633594,
2008-12-07, 00:28:04,VALID,1003.08,VALID,0,VALID,93.3165,VALID,0,VALID,24.8327,VALID,353,VALID,0.325391,
2008-12-07, 00:29:04,VALID,1003.06,VALID,0,VALID,93.2554,VALID,0,VALID,24.8522,VALID,353,VALID,1.05469,
2008-12-07, 00:30:04,VALID,1003.04,VALID,0,VALID,93.1791,VALID,0,VALID,24.8911,VALID,353,VALID,0.649219,
2008-12-07, 00:31:04,VALID,1003.04,VALID,0,VALID,93.0647,VALID,0,VALID,24.9495,VALID,349,VALID,0.704297,
2008-12-07, 00:32:04,VALID,1003.05,VALID,0,VALID,92.8664,VALID,0,VALID,24.9885,VALID,346,VALID,0.644922,
2008-12-07, 00:33:04,VALID,1003.03,VALID,0,VALID,92.6451,VALID,0,VALID,25.0469,VALID,345,VALID,0.358984,
2008-12-07, 00:34:04,VALID,1003.01,VALID,0,VALID,92.4697,VALID,0,VALID,25.0858,VALID,345,VALID,0,
2008-12-07, 00:35:04,VALID,1002.97,VALID,0,VALID,92.3171,VALID,0.100563,VALID,25.1248,VALID,345,VALID,0.161328,
2008-12-07, 00:36:04,VALID,1002.97,VALID,0,VALID,92.2179,VALID,0,VALID,25.1053,VALID,345,VALID,0,
2008-12-07, 00:37:04,VALID,1002.97,VALID,0,VALID,92.134,VALID,0,VALID,25.1248,VALID,346,VALID,0.46875,
2008-12-07, 00:38:04,VALID,1002.95,VALID,0,VALID,92.1264,VALID,0,VALID,25.1248,VALID,346,VALID,0.00234375,
2008-12-07, 00:39:04,VALID,1002.96,VALID,0,VALID,92.0424,VALID,0,VALID,25.1442,VALID,345,VALID,0.183203,
2008-12-07, 00:40:04,VALID,1002.95,VALID,0,VALID,91.9051,VALID,0,VALID,25.1851,VALID,347,VALID,0.329688,
2008-12-07, 00:41:04,VALID,1002.91,VALID,0,VALID,91.8365,VALID,0,VALID,25.1832,VALID,347,VALID,0,
2008-12-07, 00:42:04,VALID,1002.91,VALID,0,VALID,91.7373,VALID,0,VALID,25.1832,VALID,347,VALID,0.490625,
2008-12-07, 00:43:04,VALID,1002.88,VALID,0,VALID,91.722,VALID,0.100563,VALID,25.1832,VALID,348,VALID,0.381641,
2008-12-07, 00:44:04,VALID,1002.92,VALID,0,VALID,91.6991,VALID,0,VALID,25.1832,VALID,355,VALID,0.579687,
2008-12-07, 00:45:04,VALID,1002.89,VALID,0,VALID,91.6381,VALID,0,VALID,25.2046,VALID,355,VALID,0.291797,
2008-12-07, 00:46:04,VALID,1002.91,VALID,0,VALID,91.5542,VALID,0,VALID,25.1637,VALID,355,VALID,0.05,
2008-12-07, 00:47:04,VALID,1002.86,VALID,0,VALID,91.5313,VALID,0,VALID,25.1832,VALID,355,VALID,0.021875,
2008-12-07, 00:48:04,VALID,1002.87,VALID,0,VALID,91.4626,VALID,0,VALID,25.1832,VALID,354,VALID,0.683984,
2008-12-07, 00:49:04,VALID,1002.83,VALID,0,VALID,91.3253,VALID,0,VALID,25.2027,VALID,353,VALID,0.523047,
2008-12-07, 00:50:04,VALID,1002.83,VALID,0,VALID,91.2872,VALID,0,VALID,25.2007,VALID,349,VALID,0.112891,
2008-12-07, 00:51:04,VALID,1002.8,VALID,0,VALID,91.1956,VALID,0,VALID,25.2221,VALID,346,VALID,0.601172,
2008-12-07, 00:52:04,VALID,1002.79,VALID,0,VALID,91.1422,VALID,0,VALID,25.2435,VALID,345,VALID,0.622266,
2008-12-07, 00:53:04,VALID,1002.77,VALID,0,VALID,90.9363,VALID,0,VALID,25.2416,VALID,352,VALID,0.787109,
2008-12-07, 00:54:04,VALID,1002.77,VALID,0,VALID,90.7379,VALID,0,VALID,25.3,VALID,309,VALID,0.264453,
2008-12-07, 00:55:04,VALID,1002.79,VALID,0,VALID,90.387,VALID,0,VALID,25.3584,VALID,331,VALID,0.569141,
2008-12-07, 00:56:04,VALID,1002.77,VALID,0,VALID,90.1047,VALID,0,VALID,25.4383,VALID,340,VALID,0.141797,
2008-12-07, 00:57:04,VALID,1002.79,VALID,0,VALID,90.0208,VALID,0,VALID,25.4577,VALID,340,VALID,0.1375,
2008-12-07, 00:58:04,VALID,1002.76,VALID,0,VALID,89.9216,VALID,0,VALID,25.4577,VALID,340,VALID,0.326172,
2008-12-07, 00:59:04,VALID,1002.76,VALID,0,VALID,89.9292,VALID,0,VALID,25.4363,VALID,340,VALID,0.113281,
2008-12-07, 01:00:04,VALID,1002.73,VALID,0,VALID,89.914,VALID,0,VALID,25.4363,VALID,340,VALID,0.152734,
2008-12-07, 01:01:04,VALID,1002.74,VALID,0,VALID,89.8758,VALID,0,VALID,25.4169,VALID,340,VALID,0,
2008-12-07, 01:02:04,VALID,1002.74,VALID,0,VALID,89.9369,VALID,0,VALID,25.3974,VALID,340,VALID,0.112891,
2008-12-07, 01:03:04,VALID,1002.7,VALID,0,VALID,89.9826,VALID,0,VALID,25.3779,VALID,340,VALID,0.000390625,
2008-12-07, 01:04:04,VALID,1002.7,VALID,0,VALID,89.9826,VALID,0,VALID,25.3779,VALID,355,VALID,0.477734,
2008-12-07, 01:05:04,VALID,1002.66,VALID,0,VALID,89.9369,VALID,0,VALID,25.3993,VALID,355,VALID,0.548437,
2008-12-07, 01:06:04,VALID,1002.65,VALID,0,VALID,89.8987,VALID,0,VALID,25.3779,VALID,348,VALID,0.675391,
2008-12-07, 01:07:04,VALID,1002.68,VALID,0,VALID,89.8606,VALID,0,VALID,25.3974,VALID,297,VALID,0.516406,
2008-12-07, 01:08:04,VALID,1002.65,VALID,0,VALID,89.8453,VALID,0,VALID,25.3974,VALID,294,VALID,0.15625,
2008-12-07, 01:09:04,VALID,1002.65,VALID,0,VALID,89.8835,VALID,0,VALID,25.3993,VALID,294,VALID,0,
2008-12-07, 01:10:04,VALID,1002.66,VALID,0,VALID,89.8911,VALID,0,VALID,25.376,VALID,329,VALID,0.434766,
2008-12-07, 01:11:04,VALID,1002.65,VALID,0,VALID,89.8453,VALID,0,VALID,25.3779,VALID,343,VALID,0.578125,
2008-12-07, 01:12:04,VALID,1002.67,VALID,0,VALID,89.7767,VALID,0,VALID,25.3974,VALID,350,VALID,0.527344,
2008-12-07, 01:13:04,VALID,1002.67,VALID,0,VALID,89.7461,VALID,0,VALID,25.4169,VALID,356,VALID,0.0714844,
2008-12-07, 01:14:04,VALID,1002.66,VALID,0,VALID,89.7461,VALID,0,VALID,25.376,VALID,355,VALID,0.119141,
2008-12-07, 01:15:04,VALID,1002.64,VALID,0,VALID,89.7309,VALID,0,VALID,25.4169,VALID,355,VALID,0.646094,
2008-12-07, 01:16:04,VALID,1002.61,VALID,0,VALID,89.853,VALID,0,VALID,25.3974,VALID,355,VALID,0.4125,
2008-12-07, 01:17:04,VALID,1002.56,VALID,0,VALID,89.8911,VALID,0,VALID,25.3779,VALID,353,VALID,0.343359,
2008-12-07, 01:18:04,VALID,1002.59,VALID,0,VALID,89.9369,VALID,0,VALID,25.3584,VALID,284,VALID,0.435156,
2008-12-07, 01:19:04,VALID,1002.56,VALID,0,VALID,90.0132,VALID,0,VALID,25.3584,VALID,284,VALID,0.225781,
2008-12-07, 01:20:04,VALID,1002.52,VALID,0,VALID,90.036,VALID,0,VALID,25.3584,VALID,354,VALID,0.659375,
2008-12-07, 01:21:04,VALID,1002.52,VALID,0,VALID,89.9979,VALID,0,VALID,25.3584,VALID,349,VALID,0.312891,
2008-12-07, 01:22:04,VALID,1002.48,VALID,0,VALID,90.0666,VALID,0,VALID,25.3779,VALID,349,VALID,0.0296875,
2008-12-07, 01:23:04,VALID,1002.48,VALID,0,VALID,90.0818,VALID,0,VALID,25.3584,VALID,350,VALID,0.404297,
2008-12-07, 01:24:04,VALID,1002.47,VALID,0,VALID,89.9826,VALID,0,VALID,25.3584,VALID,353,VALID,0.64375,
2008-12-07, 01:25:04,VALID,1002.43,VALID,0,VALID,89.8682,VALID,0,VALID,25.3779,VALID,355,VALID,0.607031,
2008-12-07, 01:26:04,VALID,1002.42,VALID,0,VALID,89.7767,VALID,0,VALID,25.3779,VALID,355,VALID,0.579297,
2008-12-07, 01:27:04,VALID,1002.42,VALID,0,VALID,89.6775,VALID,0,VALID,25.4169,VALID,335,VALID,0.228516,
2008-12-07, 01:28:04,VALID,1002.43,VALID,0,VALID,89.6775,VALID,0,VALID,25.4169,VALID,332,VALID,0.00585938,
2008-12-07, 01:29:04,VALID,1002.4,VALID,0,VALID,89.6927,VALID,0,VALID,25.3974,VALID,332,VALID,0,
2008-12-07, 01:30:04,VALID,1002.41,VALID,0,VALID,89.7461,VALID,0,VALID,25.3974,VALID,333,VALID,0.266406,
2008-12-07, 01:31:04,VALID,1002.39,VALID,0,VALID,89.7919,VALID,0,VALID,25.3584,VALID,335,VALID,0.310547,
2008-12-07, 01:32:04,VALID,1002.37,VALID,0,VALID,89.8072,VALID,0,VALID,25.337,VALID,346,VALID,0.608984,
2008-12-07, 01:33:04,VALID,1002.37,VALID,0,VALID,89.769,VALID,0,VALID,25.3584,VALID,345,VALID,0.311328,
2008-12-07, 01:34:04,VALID,1002.36,VALID,0,VALID,89.7614,VALID,0,VALID,25.3779,VALID,342,VALID,0.215625,
2008-12-07, 01:35:04,VALID,1002.33,VALID,0,VALID,89.7004,VALID,0,VALID,25.3779,VALID,343,VALID,0.590234,
2008-12-07, 01:36:04,VALID,1002.33,VALID,0,VALID,89.6165,VALID,0,VALID,25.3779,VALID,342,VALID,0.478906,
2008-12-07, 01:37:04,VALID,1002.3,VALID,0,VALID,89.4944,VALID,0,VALID,25.3779,VALID,353,VALID,0.0808594,
2008-12-07, 01:38:04,VALID,1002.3,VALID,0,VALID,89.4486,VALID,0,VALID,25.3974,VALID,355,VALID,0.580469,
2008-12-07, 01:39:04,VALID,1002.28,VALID,0,VALID,89.3266,VALID,0,VALID,25.3993,VALID,332,VALID,0.557422,
2008-12-07, 01:40:04,VALID,1002.25,VALID,0,VALID,89.235,VALID,0,VALID,25.4188,VALID,354,VALID,0.258984,
2008-12-07, 01:41:04,VALID,1002.27,VALID,0,VALID,89.1816,VALID,0,VALID,25.4383,VALID,354,VALID,0.454688,
2008-12-07, 01:42:04,VALID,1002.25,VALID,0,VALID,89.0672,VALID,0,VALID,25.4363,VALID,353,VALID,0.297656,
2008-12-07, 01:43:04,VALID,1002.23,VALID,0,VALID,89.0214,VALID,0,VALID,25.4558,VALID,354,VALID,0.592969,
2008-12-07, 01:44:04,VALID,1002.23,VALID,0,VALID,88.8841,VALID,0,VALID,25.4363,VALID,355,VALID,0.814844,
2008-12-07, 01:45:04,VALID,1002.18,VALID,0,VALID,88.8688,VALID,0,VALID,25.4577,VALID,350,VALID,0.652344,
2008-12-07, 01:46:04,VALID,1002.18,VALID,0,VALID,88.7925,VALID,0,VALID,25.4577,VALID,343,VALID,0.29375,
2008-12-07, 01:47:04,VALID,1002.16,VALID,0,VALID,88.8307,VALID,0,VALID,25.4772,VALID,333,VALID,0,
2008-12-07, 01:48:04,VALID,1002.16,VALID,0,VALID,88.8612,VALID,0,VALID,25.4558,VALID,334,VALID,0.179688,
2008-12-07, 01:49:04,VALID,1002.16,VALID,0,VALID,88.7468,VALID,0,VALID,25.4363,VALID,350,VALID,0.483594,
2008-12-07, 01:50:04,VALID,1002.16,VALID,0,VALID,88.64,VALID,0,VALID,25.4383,VALID,349,VALID,0.578125,
2008-12-07, 01:51:04,VALID,1002.14,VALID,0,VALID,88.5866,VALID,0,VALID,25.4169,VALID,345,VALID,0.638672,
2008-12-07, 01:52:04,VALID,1002.15,VALID,0,VALID,88.5637,VALID,0,VALID,25.4169,VALID,346,VALID,0.637891,
2008-12-07, 01:53:04,VALID,1002.13,VALID,0,VALID,88.5408,VALID,0,VALID,25.4169,VALID,347,VALID,0.553906,
2008-12-07, 01:54:04,VALID,1002.12,VALID,0,VALID,88.3501,VALID,0,VALID,25.3974,VALID,354,VALID,0.557422,
2008-12-07, 01:55:04,VALID,1002.13,VALID,0,VALID,88.2585,VALID,0,VALID,25.4188,VALID,336,VALID,0.717969,
2008-12-07, 01:56:04,VALID,1002.1,VALID,0,VALID,88.5103,VALID,0,VALID,25.3974,VALID,352,VALID,0.748438,
2008-12-07, 01:57:04,VALID,1002.09,VALID,0,VALID,88.2738,VALID,0,VALID,25.3779,VALID,349,VALID,0.810938,
2008-12-07, 01:58:04,VALID,1002.08,VALID,0,VALID,88.1059,VALID,0,VALID,25.3584,VALID,358,VALID,0.769922,
2008-12-07, 01:59:04,VALID,1002.07,VALID,0,VALID,88.0907,VALID,0,VALID,25.3798,VALID,359,VALID,0.666797,
2008-12-07, 02:00:04,VALID,1002.03,VALID,0,VALID,87.8771,VALID,0,VALID,25.3974,VALID,352,VALID,0.828125,
2008-12-07, 02:01:04,VALID,1002.04,VALID,0,VALID,87.755,VALID,0,VALID,25.4188,VALID,349,VALID,0.615625,
2008-12-07, 02:02:04,VALID,1002.01,VALID,0,VALID,87.8084,VALID,0,VALID,25.4169,VALID,349,VALID,0.170312,
2008-12-07, 02:03:04,VALID,1002.01,VALID,0,VALID,87.7932,VALID,0,VALID,25.3974,VALID,344,VALID,0.500391,
2008-12-07, 02:04:04,VALID,1001.97,VALID,0,VALID,87.5948,VALID,0,VALID,25.3974,VALID,345,VALID,0.232422,
2008-12-07, 02:05:04,VALID,1001.96,VALID,0,VALID,87.4727,VALID,0,VALID,25.3974,VALID,345,VALID,0.257813,
2008-12-07, 02:06:04,VALID,1001.94,VALID,0,VALID,87.282,VALID,0,VALID,25.4363,VALID,350,VALID,0.253516,
2008-12-07, 02:07:04,VALID,1001.93,VALID,0,VALID,87.0608,VALID,0,VALID,25.4753,VALID,351,VALID,0.652734,
2008-12-07, 02:08:04,VALID,1001.92,VALID,0,VALID,87.076,VALID,0,VALID,25.5162,VALID,349,VALID,0.183594,
2008-12-07, 02:09:04,VALID,1001.89,VALID,0,VALID,87.1371,VALID,0,VALID,25.5142,VALID,349,VALID,0.114844,
2008-12-07, 02:10:04,VALID,1001.85,VALID,0,VALID,86.9921,VALID,0,VALID,25.4948,VALID,350,VALID,0.803125,
2008-12-07, 02:11:04,VALID,1001.84,VALID,0,VALID,86.9464,VALID,0,VALID,25.5142,VALID,354,VALID,0.735937,
2008-12-07, 02:12:04,VALID,1001.85,VALID,0,VALID,86.9158,VALID,0,VALID,25.5337,VALID,352,VALID,0.613281,
2008-12-07, 02:13:04,VALID,1001.81,VALID,0,VALID,87.0608,VALID,0,VALID,25.5162,VALID,352,VALID,0.503125,
2008-12-07, 02:14:04,VALID,1001.81,VALID,0,VALID,87.1523,VALID,0,VALID,25.4753,VALID,348,VALID,0.339063,
2008-12-07, 02:15:04,VALID,1001.8,VALID,0,VALID,87.3202,VALID,0,VALID,25.4772,VALID,348,VALID,0.645312,
2008-12-07, 02:16:04,VALID,1001.77,VALID,0,VALID,87.4499,VALID,0,VALID,25.4363,VALID,328,VALID,0.221875,
2008-12-07, 02:17:04,VALID,1001.73,VALID,0,VALID,87.6711,VALID,0,VALID,25.3974,VALID,351,VALID,0.811328,
2008-12-07, 02:18:04,VALID,1001.74,VALID,0,VALID,87.7703,VALID,0,VALID,25.3584,VALID,339,VALID,0.254687,
2008-12-07, 02:19:04,VALID,1001.72,VALID,0,VALID,87.7855,VALID,0,VALID,25.337,VALID,358,VALID,0.343359,
2008-12-07, 02:20:04,VALID,1001.7,VALID,0,VALID,87.7855,VALID,0.100563,VALID,25.3584,VALID,356,VALID,0.514063,
2008-12-07, 02:21:04,VALID,1001.69,VALID,0,VALID,87.7169,VALID,0,VALID,25.3779,VALID,356,VALID,0.462109,
2008-12-07, 02:22:04,VALID,1001.67,VALID,0,VALID,87.6787,VALID,0,VALID,25.3974,VALID,303,VALID,0.0304688,
2008-12-07, 02:23:04,VALID,1001.65,VALID,0,VALID,87.6101,VALID,0,VALID,25.4169,VALID,302,VALID,0.204297,
2008-12-07, 02:24:04,VALID,1001.66,VALID,0,VALID,87.5567,VALID,0,VALID,25.4169,VALID,318,VALID,0.355078,
2008-12-07, 02:25:04,VALID,1001.65,VALID,0,VALID,87.4727,VALID,0,VALID,25.4577,VALID,348,VALID,0.76875,
2008-12-07, 02:26:04,VALID,1001.65,VALID,0,VALID,87.427,VALID,0,VALID,25.4558,VALID,351,VALID,0.663281,
2008-12-07, 02:27:04,VALID,1001.66,VALID,0,VALID,87.3583,VALID,0,VALID,25.4967,VALID,345,VALID,0.680859,
2008-12-07, 02:28:04,VALID,1001.67,VALID,0,VALID,87.3583,VALID,0,VALID,25.4753,VALID,341,VALID,0.124609,
2008-12-07, 02:29:04,VALID,1001.68,VALID,0,VALID,87.3202,VALID,0,VALID,25.4753,VALID,351,VALID,0.59375,
2008-12-07, 02:30:04,VALID,1001.66,VALID,0,VALID,87.2439,VALID,0,VALID,25.4753,VALID,352,VALID,0.673828,
2008-12-07, 02:31:04,VALID,1001.68,VALID,0,VALID,87.2591,VALID,0,VALID,25.4753,VALID,349,VALID,0.688672,
2008-12-07, 02:32:04,VALID,1001.69,VALID,0,VALID,87.3736,VALID,0,VALID,25.4363,VALID,346,VALID,0.363281,
2008-12-07, 02:33:04,VALID,1001.7,VALID,0,VALID,87.549,VALID,0,VALID,25.4363,VALID,356,VALID,1.03672,
2008-12-07, 02:34:04,VALID,1001.68,VALID,0,VALID,87.5567,VALID,0,VALID,25.4169,VALID,351,VALID,0.811719,
2008-12-07, 02:35:04,VALID,1001.7,VALID,0,VALID,87.5948,VALID,0.100563,VALID,25.4169,VALID,340,VALID,0.833594,
2008-12-07, 02:36:04,VALID,1001.68,VALID,0,VALID,87.6787,VALID,0,VALID,25.4169,VALID,352,VALID,0.73125,
2008-12-07, 02:37:04,VALID,1001.71,VALID,0,VALID,87.816,VALID,0,VALID,25.4188,VALID,352,VALID,0.581641,
2008-12-07, 02:38:04,VALID,1001.69,VALID,0,VALID,87.8847,VALID,0,VALID,25.4169,VALID,2,VALID,0.726563,
2008-12-07, 02:39:04,VALID,1001.71,VALID,0,VALID,87.8084,VALID,0,VALID,25.4363,VALID,350,VALID,0.838281,
2008-12-07, 02:40:04,VALID,1001.67,VALID,0,VALID,87.7321,VALID,0.100563,VALID,25.4558,VALID,340,VALID,0.487109,
2008-12-07, 02:41:04,VALID,1001.67,VALID,0,VALID,87.6177,VALID,0,VALID,25.4772,VALID,347,VALID,1.11211,
2008-12-07, 02:42:04,VALID,1001.7,VALID,0,VALID,87.6329,VALID,0,VALID,25.4734,VALID,322,VALID,0.669141,
2008-12-07, 02:43:04,VALID,1001.67,VALID,0,VALID,87.5872,VALID,0,VALID,25.5142,VALID,343,VALID,0.842188,
2008-12-07, 02:44:04,VALID,1001.67,VALID,0,VALID,87.5643,VALID,0,VALID,25.5142,VALID,346,VALID,0.722266,
2008-12-07, 02:45:04,VALID,1001.66,VALID,0,VALID,87.5948,VALID,0.100563,VALID,25.4948,VALID,356,VALID,0.6625,
2008-12-07, 02:46:04,VALID,1001.67,VALID,0,VALID,87.694,VALID,0,VALID,25.4948,VALID,337,VALID,0.944922,
2008-12-07, 02:47:04,VALID,1001.63,VALID,0,VALID,87.6711,VALID,0,VALID,25.4948,VALID,348,VALID,0.796875,
2008-12-07, 02:48:04,VALID,1001.63,VALID,0,VALID,87.7626,VALID,0,VALID,25.4753,VALID,351,VALID,0.444141,
2008-12-07, 02:49:04,VALID,1001.63,VALID,0,VALID,87.8847,VALID,0,VALID,25.4558,VALID,341,VALID,0.580469,
2008-12-07, 02:50:04,VALID,1001.61,VALID,0,VALID,87.9686,VALID,0.100563,VALID,25.4558,VALID,331,VALID,0.191797,
2008-12-07, 02:51:04,VALID,1001.6,VALID,0,VALID,88.0678,VALID,0,VALID,25.4363,VALID,321,VALID,0.405469,
2008-12-07, 02:52:04,VALID,1001.58,VALID,0,VALID,88.2356,VALID,0,VALID,25.3974,VALID,354,VALID,0.614453,
2008-12-07, 02:53:04,VALID,1001.54,VALID,0,VALID,88.3424,VALID,0,VALID,25.3974,VALID,346,VALID,0.946484,
2008-12-07, 02:54:04,VALID,1001.56,VALID,0,VALID,88.3958,VALID,0,VALID,25.3974,VALID,317,VALID,0.245312,
2008-12-07, 02:55:04,VALID,1001.59,VALID,0,VALID,88.5255,VALID,0,VALID,25.3779,VALID,357,VALID,0.603125,
2008-12-07, 02:56:04,VALID,1001.57,VALID,0,VALID,88.6323,VALID,0,VALID,25.339,VALID,328,VALID,0.353906,
2008-12-07, 02:57:04,VALID,1001.58,VALID,0,VALID,88.7391,VALID,0,VALID,25.339,VALID,315,VALID,0.917188,
2008-12-07, 02:58:04,VALID,1001.57,VALID,0,VALID,88.762,VALID,0.100563,VALID,25.3195,VALID,317,VALID,0.0535156,
2008-12-07, 02:59:04,VALID,1001.57,VALID,0,VALID,88.8154,VALID,0,VALID,25.3195,VALID,333,VALID,0.666406,
2008-12-07, 03:00:04,VALID,1001.56,VALID,0,VALID,88.8841,VALID,0.100563,VALID,25.2806,VALID,342,VALID,0.721875,
2008-12-07, 03:01:04,VALID,1001.58,VALID,0,VALID,88.9375,VALID,0,VALID,25.2592,VALID,349,VALID,0.710156,
2008-12-07, 03:02:04,VALID,1001.57,VALID,0,VALID,88.9527,VALID,0.100563,VALID,25.2611,VALID,345,VALID,0.382813,
2008-12-07, 03:03:04,VALID,1001.6,VALID,0,VALID,88.9985,VALID,0,VALID,25.2611,VALID,348,VALID,0.121094,
2008-12-07, 03:04:04,VALID,1001.63,VALID,0,VALID,89.113,VALID,0,VALID,25.2221,VALID,345,VALID,0.684766,
2008-12-07, 03:05:04,VALID,1001.62,VALID,0,VALID,89.1282,VALID,0,VALID,25.2416,VALID,330,VALID,0.528906,
2008-12-07, 03:06:04,VALID,1001.61,VALID,0,VALID,89.1587,VALID,0,VALID,25.2221,VALID,321,VALID,0.126563,
2008-12-07, 03:07:04,VALID,1001.6,VALID,0,VALID,89.2579,VALID,0,VALID,25.2027,VALID,317,VALID,0.128906,
2008-12-07, 03:08:04,VALID,1001.64,VALID,0,VALID,89.4257,VALID,0,VALID,25.1832,VALID,346,VALID,0.315625,
2008-12-07, 03:09:04,VALID,1001.61,VALID,0,VALID,89.5631,VALID,0,VALID,25.1832,VALID,334,VALID,0.567969,
2008-12-07, 03:10:04,VALID,1001.6,VALID,0,VALID,89.6546,VALID,0,VALID,25.1832,VALID,348,VALID,0.555078,
2008-12-07, 03:11:04,VALID,1001.63,VALID,0,VALID,89.6927,VALID,0.100563,VALID,25.1832,VALID,323,VALID,0.624609,
2008-12-07, 03:12:04,VALID,1001.65,VALID,0,VALID,89.7538,VALID,0.100563,VALID,25.1832,VALID,338,VALID,0.53125,
2008-12-07, 03:13:04,VALID,1001.64,VALID,0,VALID,89.7843,VALID,0.100563,VALID,25.2027,VALID,357,VALID,0.803906,
2008-12-07, 03:14:04,VALID,1001.67,VALID,0,VALID,89.7309,VALID,0,VALID,25.224,VALID,2,VALID,0.0621094,
2008-12-07, 03:15:04,VALID,1001.64,VALID,0,VALID,89.7996,VALID,0,VALID,25.1832,VALID,342,VALID,0.422266,
2008-12-07, 03:16:04,VALID,1001.64,VALID,0,VALID,89.8224,VALID,0.100563,VALID,25.2027,VALID,314,VALID,0.2875,
2008-12-07, 03:17:04,VALID,1001.65,VALID,0,VALID,89.8148,VALID,0,VALID,25.1832,VALID,314,VALID,0.182031,
2008-12-07, 03:18:04,VALID,1001.64,VALID,0,VALID,89.7996,VALID,0,VALID,25.2046,VALID,353,VALID,0.131641,
2008-12-07, 03:19:04,VALID,1001.63,VALID,0,VALID,89.8224,VALID,0,VALID,25.1832,VALID,338,VALID,0.337109,
2008-12-07, 03:20:04,VALID,1001.65,VALID,0,VALID,89.8377,VALID,0,VALID,25.2027,VALID,339,VALID,1.11484,
2008-12-07, 03:21:04,VALID,1001.67,VALID,0,VALID,89.6317,VALID,0,VALID,25.2202,VALID,333,VALID,0.340625,
2008-12-07, 03:22:04,VALID,1001.67,VALID,0,VALID,89.5402,VALID,0,VALID,25.2611,VALID,345,VALID,0.338281,
2008-12-07, 03:23:04,VALID,1001.66,VALID,0,VALID,89.502,VALID,0,VALID,25.2611,VALID,338,VALID,0.33125,
2008-12-07, 03:24:04,VALID,1001.68,VALID,0,VALID,89.4715,VALID,0,VALID,25.2611,VALID,58,VALID,0.226953,
2008-12-07, 03:25:04,VALID,1001.67,VALID,0,VALID,89.5097,VALID,0,VALID,25.2825,VALID,348,VALID,0.261719,
2008-12-07, 03:26:04,VALID,1001.65,VALID,0,VALID,89.5097,VALID,0,VALID,25.2611,VALID,350,VALID,0.509375,
2008-12-07, 03:27:04,VALID,1001.65,VALID,0,VALID,89.4944,VALID,0,VALID,25.2416,VALID,340,VALID,0.241406,
2008-12-07, 03:28:04,VALID,1001.66,VALID,0,VALID,89.5554,VALID,0,VALID,25.2416,VALID,350,VALID,0.516406,
2008-12-07, 03:29:04,VALID,1001.68,VALID,0,VALID,89.5325,VALID,0,VALID,25.2221,VALID,350,VALID,0.673047,
2008-12-07, 03:30:04,VALID,1001.68,VALID,0,VALID,89.5554,VALID,0,VALID,25.2435,VALID,346,VALID,0.6,
2008-12-07, 03:31:04,VALID,1001.68,VALID,0,VALID,89.5631,VALID,0,VALID,25.2027,VALID,319,VALID,0,
2008-12-07, 03:32:04,VALID,1001.69,VALID,0,VALID,89.5859,VALID,0,VALID,25.2027,VALID,336,VALID,0.324219,
2008-12-07, 03:33:04,VALID,1001.68,VALID,0,VALID,89.7004,VALID,0,VALID,25.1832,VALID,334,VALID,0.286719,
2008-12-07, 03:34:04,VALID,1001.67,VALID,0,VALID,89.7614,VALID,0,VALID,25.1832,VALID,343,VALID,0.722656,
2008-12-07, 03:35:04,VALID,1001.67,VALID,0,VALID,89.7767,VALID,0,VALID,25.1832,VALID,331,VALID,0.479297,
2008-12-07, 03:36:04,VALID,1001.68,VALID,0,VALID,89.7156,VALID,0,VALID,25.2027,VALID,336,VALID,0.539453,
2008-12-07, 03:37:04,VALID,1001.67,VALID,0,VALID,89.708,VALID,0,VALID,25.224,VALID,304,VALID,0.564844,
2008-12-07, 03:38:04,VALID,1001.68,VALID,0,VALID,89.6699,VALID,0,VALID,25.2027,VALID,273,VALID,0.195703,
2008-12-07, 03:39:04,VALID,1001.69,VALID,0,VALID,89.708,VALID,0,VALID,25.2046,VALID,336,VALID,0.442187,
2008-12-07, 03:40:04,VALID,1001.69,VALID,0,VALID,89.7156,VALID,0,VALID,25.2027,VALID,338,VALID,0.508984,
2008-12-07, 03:41:04,VALID,1001.72,VALID,0,VALID,89.7767,VALID,0,VALID,25.2027,VALID,337,VALID,0.74375,
2008-12-07, 03:42:04,VALID,1001.74,VALID,0,VALID,89.7385,VALID,0,VALID,25.2027,VALID,341,VALID,0.599219,
2008-12-07, 03:43:04,VALID,1001.75,VALID,0,VALID,89.7385,VALID,0,VALID,25.1832,VALID,345,VALID,0.671094,
2008-12-07, 03:44:04,VALID,1001.8,VALID,0,VALID,89.7538,VALID,0,VALID,25.1832,VALID,295,VALID,0.680859,